Location: ?????
(38.2579°N, 22.9711°E)
Time: 14:42:19
(UTC+00:00)

COSMOS 2455 - Pass Details

Date: 13 December 2025
Orbit: 898 x 910 km, 67.1° (Epoch: 17 January)

Event Time Altitude Azimuth Distance (km) Brightness Sun altitude
Rises 15:43:59 0° 166° (SSE) 3,511 6.1 -7.1°
Reaches altitude 10° 15:47:05 10° 151° (SSE) 2,577 5.2 -7.6°
Maximum altitude 15:51:22 21° 105° (ESE) 1,934 4.1 -8.4°
Enters shadow 15:55:24 11° 60° (ENE) 2,530 4.5 -9.1°
